{"data":{"norad_id":60126,"intl_designator":"2024-118P","name":"STARLINK-31846","alt_names":[],"object_type":"PAYLOAD","status":"ACTIVE","operator":null,"country":"US","launch_date":"2024-06-24","launch_site_code":"AFWTR","launch_vehicle":null,"mission":null,"orbit_class":"UNKNOWN","rcs_meters":null,"size_class":null,"mass_kg":null,"dimensions":null,"purposes":["comms"],"wikipedia_slug":null,"has_3d_model":false,"image_url":null,"decayed_at":null,"tle_current":{"epoch":"2026-09-21T05:41:30.109056Z","epoch_age_seconds":117880,"freshness":"FRESH","line1":"1 60126U 24118P   26264.23715404  .00000891  00000+0  40476-4 0  9999","line2":"2 60126  53.1601 197.1418 0001383  84.2516 275.8643 15.31707772125659","mean_motion":15.31707772,"eccentricity":0.0001383,"inclination_deg":53.1601,"raan_deg":197.1418,"arg_perigee_deg":84.2516,"mean_anomaly_deg":275.8643,"bstar":4.0476e-5,"rev_number":12565,"period_min":94.012710931129,"perigee_km":469.7696309117,"apogee_km":471.66402388036,"semimajor_km":6848.853827396,"source":"CELESTRAK","updated_at":"2026-09-22T09:00:49.157420Z"}}}